CW5834 Weather Reports


time (UTC)temp
F
wind
direction
speed
knots
gust
knots
rain 1hr
in
rain 24hr
in
rain mn
in
humidity
%
barometer
mb
20260502130517 53 158 0.9 3.5 0.00 0.00 0.00 60 1016.5
20260502123517 51 90 0.9 2.6 0.00 0.00 0.00 63 1016.4
20260502122516 50 23 0.9 3.5 0.00 0.00 0.00 63 1016.4
20260502121517 49 0 1.7 4.3 0.00 0.00 0.00 67 1016.3
20260502120516 48 23 0.9 2.6 0.00 0.00 0.00 69 1016.3
20260502115517 47 0 0.9 2.6 0.00 0.00 0.00 69 1016.0
20260502114517 47 0.0 1.7 0.00 0.00 0.00 72 1016.0
20260502113517 47 0.0 0.0 0.00 0.00 0.00 73 1015.9
20260502112536 47 0.0 0.9 0.00 0.00 0.00 74 1015.8
20260502111517 47 0.0 1.7 0.00 0.00 0.00 71 1015.7
20260502110523 47 0.0 0.9 0.00 0.00 0.00 71 1015.6
20260502105536 47 338 0.9 1.7 0.00 0.00 0.00 69 1015.6
20260502104516 47 0 0.9 1.7 0.00 0.00 0.00 69 1015.6
20260502103516 48 338 1.7 3.5 0.00 0.00 0.00 68 1015.6
20260502102537 48 338 0.9 1.7 0.00 0.00 0.00 68 1015.9
20260502100516 48 0 1.7 2.6 0.00 0.00 0.00 66 1015.5
20260502090516 48 0 0.9 1.7 0.00 0.00 0.00 66 1015.5
20260502071516 49 338 0.9 1.7 0.00 0.00 0.00 68 1016.2
20260502070556 50 0.0 1.7 0.00 0.00 0.00 68 1016.2
20260502065516 50 23 0.9 1.7 0.00 0.00 0.00 66 1016.1
20260502064516 50 338 0.9 1.7 0.00 0.00 0.00 66 1016.1
20260502063516 50 0 0.9 1.7 0.00 0.00 0.00 65 1016.3
20260502062516 50 338 0.9 1.7 0.00 0.00 0.00 65 1016.2
20260502061516 50 0 1.7 3.5 0.00 0.00 0.00 64 1016.1
20260502060516 51 338 0.9 2.6 0.00 0.00 0.00 64 1016.0
20260502055516 51 0 1.7 3.5 0.00 0.00 0.00 62 1016.0
20260502054516 51 0 1.7 3.5 0.00 0.00 0.00 62 1016.2
20260502053517 51 23 0.9 3.5 0.00 0.00 0.00 62 1016.3
20260502052536 52 45 1.7 4.3 0.00 0.00 0.00 61 1016.3
20260502051556 52 0 2.6 5.2 0.00 0.00 0.00 60 1016.2
20260502050516 52 0 0.9 1.7 0.00 0.00 0.00 61 1016.2
20260502045516 53 0 0.9 4.3 0.00 0.00 0.00 59 1016.1
20260502044516 53 0 1.7 4.3 0.00 0.00 0.00 59 1016.1
20260502043515 53 0 1.7 4.3 0.00 0.00 0.00 59 1016.1
20260502042536 53 0 0.9 2.6 0.00 0.00 0.00 59 1015.8
20260502041516 54 0 2.6 7.8 0.00 0.00 0.00 58 1015.8
20260502040516 54 23 1.7 4.3 0.00 0.00 0.00 59 1015.7
20260502035517 54 293 0.9 2.6 0.00 0.00 0.00 60 1015.6
20260502034517 54 113 0.9 2.6 0.00 0.00 0.00 59 1015.6
20260502033517 55 0 2.6 8.7 0.00 0.00 0.00 58 1015.8
20260502032517 55 338 0.9 4.3 0.00 0.00 0.00 59 1015.7
20260502031517 55 0 1.7 7.8 0.00 0.00 0.00 60 1015.8
20260502030516 55 23 1.7 7.8 0.00 0.00 0.00 60 1015.8
20260502025516 55 338 0.9 1.7 0.00 0.00 0.00 61 1015.7
20260502024516 56 23 0.9 1.7 0.00 0.00 0.00 61 1015.8
20260502023516 56 68 0.9 2.6 0.00 0.00 0.00 61 1015.8
20260502022516 56 0.0 1.7 0.00 0.00 0.00 61 1015.7
20260502021516 56 338 0.9 3.5 0.00 0.00 0.00 61 1015.7
20260502020516 57 0.0 1.7 0.00 0.00 0.00 62 1015.5
20260502015516 57 23 2.6 7.0 0.00 0.00 0.00 61 1015.3
20260502014516 57 0 0.9 1.7 0.00 0.00 0.00 63 1015.1
20260502013516 58 0 1.7 7.0 0.00 0.00 0.00 63 1015.0
20260502012516 58 23 1.7 3.5 0.00 0.00 0.00 64 1014.7
20260502011516 58 0.0 3.5 0.00 0.00 0.00 63 1014.6
20260502010556 59 0 3.5 8.7 0.00 0.00 0.00 61 1014.4
20260502005516 60 68 0.9 4.3 0.00 0.00 0.00 60 1013.6
20260502004516 60 338 1.7 4.3 0.00 0.00 0.00 55 1013.4
20260502003516 61 315 2.6 7.0 0.00 0.00 0.00 54 1013.4
20260502002522 61 23 1.7 4.3 0.00 0.00 0.00 51 1013.2
20260502001516 62 0 1.7 5.2 0.00 0.00 0.00 51 1013.2
20260502000517 62 0 3.5 7.8 0.00 0.00 0.00 49 1013.0
20260501235516 62 315 0.9 4.3 0.00 0.00 0.00 49 1013.0
20260501234536 63 338 1.7 3.5 0.00 0.00 0.00 48 1012.7
20260501233516 63 315 1.7 4.3 0.00 0.00 0.00 47 1012.4
20260501232516 64 293 1.7 4.3 0.00 0.00 0.00 45 1012.4
20260501231516 64 315 0.9 2.6 0.00 0.00 0.00 45 1012.2
20260501230516 64 315 0.9 2.6 0.00 0.00 0.00 46 1012.3
20260501225516 65 315 2.6 7.8 0.00 0.00 0.00 44 1012.4
20260501224516 65 0 0.9 5.2 0.00 0.00 0.00 46 1012.4
20260501223516 66 338 1.7 5.2 0.00 0.00 0.00 43 1012.5
20260501222516 66 315 0.9 3.5 0.00 0.00 0.00 45 1012.5
20260501221516 66 315 2.6 7.8 0.00 0.00 0.00 43 1012.6
20260501220536 67 338 2.6 7.8 0.00 0.00 0.00 41 1012.9
20260501215516 67 315 2.6 8.7 0.00 0.00 0.00 39 1012.8
20260501214536 67 338 1.7 3.5 0.00 0.00 0.00 46 1012.7
20260501213516 67 225 1.7 7.0 0.00 0.00 0.00 43 1012.7
20260501212516 67 338 4.3 10.4 0.00 0.00 0.00 42 1012.7
20260501211536 67 203 4.3 11.3 0.00 0.00 0.00 44 1012.7
20260501210516 67 203 1.7 7.0 0.00 0.00 0.00 43 1012.8
20260501205520 68 203 2.6 6.1 0.00 0.00 0.00 43 1013.1
20260501204535 69 203 0.9 4.3 0.00 0.00 0.00 46 1013.2
20260501203516 68 203 3.5 8.7 0.00 0.00 0.00 41 1013.3
20260501202516 68 203 4.3 9.6 0.00 0.00 0.00 38 1013.4
20260501201515 68 293 1.7 3.5 0.00 0.00 0.00 44 1013.4
20260501200516 68 225 1.7 4.3 0.00 0.00 0.00 40 1013.5
20260501195515 68 225 5.2 10.4 0.00 0.00 0.00 39 1013.6
20260501194516 68 225 3.5 7.0 0.00 0.00 0.00 41 1013.6
20260501193516 69 293 3.5 7.0 0.00 0.00 0.00 41 1013.7
20260501192515 69 0 0.9 2.6 0.00 0.00 0.00 43 1014.0
20260501191516 68 225 2.6 6.1 0.00 0.00 0.00 40 1013.9
20260501190516 67 225 2.6 5.2 0.00 0.00 0.00 41 1014.0
20260501185516 67 23 1.7 4.3 0.00 0.00 0.00 42 1014.1
20260501184515 66 338 3.5 9.6 0.00 0.00 0.00 39 1014.2
20260501183515 66 203 3.5 9.6 0.00 0.00 0.00 39 1014.1
20260501182536 67 23 2.6 8.7 0.00 0.00 0.00 40 1014.5
20260501181516 66 293 5.2 12.2 0.00 0.00 0.00 41 1014.7
20260501180515 66 270 1.7 8.7 0.00 0.00 0.00 41 1014.8
20260501175515 65 248 3.5 8.7 0.00 0.00 0.00 38 1014.7
20260501174515 66 338 3.5 9.6 0.00 0.00 0.00 39 1014.7
20260501173517 65 315 4.3 12.2 0.00 0.00 0.00 40 1014.7
20260501172517 66 248 1.7 5.2 0.00 0.00 0.00 39 1014.7
20260501171517 65 315 2.6 4.3 0.00 0.00 0.00 38 1014.9
20260501170537 65 338 1.7 4.3 0.00 0.00 0.00 38 1014.9
20260501165557 65 203 1.7 2.6 0.00 0.00 0.00 44 1015.0
20260501164517 64 225 2.6 7.8 0.00 0.00 0.00 41 1015.0
20260501163517 63 203 2.6 6.1 0.00 0.00 0.00 45 1015.3
20260501162517 63 180 1.7 4.3 0.00 0.00 0.00 48 1015.4
20260501161517 63 203 1.7 6.1 0.00 0.00 0.00 49 1015.4
20260501160523 63 203 1.7 5.2 0.00 0.00 0.00 54 1015.4
20260501155517 62 158 1.7 3.5 0.00 0.00 0.00 50 1015.5
20260501153517 61 203 1.7 4.3 0.00 0.00 0.00 55 1015.6
20260501152537 61 158 1.7 3.5 0.00 0.00 0.00 53 1015.9
20260501151517 60 0 0.9 2.6 0.00 0.00 0.00 59 1015.7
20260501150517 60 90 0.9 3.5 0.00 0.00 0.00 58 1016.1
20260501145517 59 90 0.9 2.6 0.00 0.00 0.00 57 1016.0
20260501144517 59 225 1.7 3.5 0.00 0.00 0.00 58 1016.0
20260501143537 58 0 1.7 3.5 0.00 0.00 0.00 62 1015.5
20260501142537 57 315 0.9 1.7 0.00 0.00 0.00 63 1015.4